Location: Unspecified
(0.0000°N, 0.0000°E)
Time: 09:34:17
(UTC+00:00)

Cosmos 2333 Rocket - Pass Details

Date: 20 December 2025
Orbit: 837 x 865 km, 70.8° (Epoch: 14 January)

Event Time Altitude Azimuth Distance (km) Brightness Sun altitude
Exits shadow 04:02:37 - 16° (NNE) 2,712 4.7 -26.2°
Reaches altitude 10° 04:03:24 10° 20° (NNE) 2,471 4.6 -26.0°
Maximum altitude 04:07:58 25° 74° (ENE) 1,640 4.1 -25.0°
Drops below altitude 10° 04:12:31 10° 128° (SE) 2,464 5.6 -23.9°
Sets 04:15:22 0° 141° (SE) 3,397 6.4 -23.3°
